Powrót do katalogu

OPS 4467 B

AktywnyNawigacjaPO
NORAD 813·PAYLOAD·🇺🇸 United States

Wystrzelony Jun 18, 1964 z Vandenberg Space Force Base

Loading…

Następne Przeloty (najbliższe 24 godziny)

TLE

ŚwieżeSource: Space-Track

Epoka: Sep 14, 2026, 09:39 UTC

1 00813U 64031B   26257.40248035  .00000014  00000-0  29887-4 0  9997
2 00813  99.8405  60.5988 0004526 290.1837  69.8851 14.23729753227621

Śledź OPS 4467 B w czasie rzeczywistym z AllMySat

Download on the App Store